Regional Weather Roundup
Issued by NWS Bismarck, ND

Home | Current Version | Previous Version | Text Only | Print | Product List | Glossary On
Versions: 1 2 3 4 5 6 7 8 9 10 11 12 13 14 15 16 17 18 19 20 21 22 23 24 25 26 27 28 29 30 31 32 33 34 35 36 37 38 39 40 41 42 43 44 45 46 47 48 49 50
684
ASUS43 KBIS 201010
RWRBIS

NWR BROADCAST TEXT
NATIONAL WEATHER SERVICE BISMARCK ND
500 AM CDT SUN AUG 20 2017

NOTE: "FAIR" INDICATES FEW OR NO CLOUDS BELOW 12,000 FEET WITH NO
SIGNIFICANT WEATHER AND/OR OBSTRUCTIONS TO VISIBILITY.


CITY           SKY/WX    TMP DP  RH WIND       PRES   REMARKS
WILLISTON      CLEAR     46  40  79 SW3       30.03R
MINOT          CLOUDY    57  41  55 W12       29.97R
MINOT AFB      PTCLDY    48  41  76 W6        29.96R
BISMARCK       MOCLDY    60  49  66 NW6       29.99R
DICKINSON      CLOUDY    50  44  80 NW7       30.03R
GARRISON         N/A     51  45  79 NW12      29.98R
HETTINGER ARPT CLOUDY    61  42  49 N13G18    30.03R
JAMESTOWN      CLEAR     58  52  80 NW6       29.91R
CARRINGTON     FAIR      55  50  82 NW10      29.95R
HAZEN          CLOUDY    48  45  87 S5        30.02R
LINTON         FAIR      57  48  72 W5        30.00F
MANDAN         CLOUDY    55  46  71 CALM      30.00R
RUGBY          FAIR      50  46  87 NW9       29.93S
STANLEY        CLOUDY    50  41  71 NW9       30.03R
TIOGA          FAIR      48  41  76 W3        30.04R
$$

CITY           SKY/WX    TMP DP  RH WIND       PRES   REMARKS
GRAND FORKS    CLEAR     62  53  72 NW10      29.81R
GRAND FORKS AF CLEAR     61  51  69 NW10G20   29.84R
DEVILS LAKE    CLEAR     57  50  77 NW10      29.91R
FARGO          CLEAR     64  56  75 NW12      29.84R
CANDO          FAIR      50  50 100 NW8       29.93R
CAVALIER       FAIR      63  48  59 NW13G20   29.82R
GRAFTON        FAIR      63  54  72 NW13      29.83R
GWINNER        SUNNY     64  57  77 N9G16     29.88R
LANGDON        FAIR      54  52  94 NW12      29.88R
ROLLA          FAIR      55  43  62 NW14      29.92R
WALHALLA       FAIR      61  61 100 NW9       29.84R
$$

CITY           SKY/WX    TMP DP  RH WIND       PRES   REMARKS
ABERDEEN       CLOUDY    65  60  84 N6        29.92R
MOBRIDGE       CLOUDY    64  53  67 S9        29.96R
BUFFALO          N/A     60  45  57 NE13      29.97F
RAPID CITY     CLEAR     61  49  64 N13       30.02R
GLASGOW        CLEAR     52  31  44 N3        30.03S
SIDNEY         MOCLDY    49  38  65 W3        30.05R
WOLF POINT     CLEAR     48  36  63 S7        30.04R
GLENDIVE       CLOUDY    53  35  50 N6        30.07R
MILES CITY     CLOUDY    62  35  36 NE15      30.03F
BAKER          PTCLDY    58  38  47 SE6       30.05S
$$

CITY           SKY/WX    TMP DP  RH WIND       PRES   REMARKS
BILLINGS       PTCLDY    60  37  42 N9        30.04S
GREAT FALLS    CLEAR     49  37  63 SW9       30.04S
REGINA         CLEAR     37  34  87 S5        29.99R
ESTEVAN        PTCLDY    45  37  76 NW9       29.99R
$$





USA.gov is the U.S. government's official web portal to all federal, state and local government web resources and services.